Location: The Stocker AstroScience Center
(25.7579°N, 80.3725°W)
Time: 21:25:17

ISS - Pass Details

Date: 01 March 2018
Orbit: 403 x 406 km, 51.6° (Epoch: 19 March)

Event Time Altitude Azimuth Distance (km) Brightness Sun altitude
Rises 11:59:16 0° 340° (NNW) 2,315 -0.3 55.8°
Reaches altitude 10° 12:02:11 10° 8° (N) 1,453 -1.2 55.9°
Maximum altitude 12:03:53 13° 40° (NE) 1,262 -1.4 56.0°
Drops below altitude 10° 12:05:35 10° 72° (ENE) 1,450 -0.9 56.1°
Sets 12:08:28 0° 100° (E) 2,306 0.2 56.3°
